Middle Georgia Regional Airport Airport (MCN)

 

Airport Diagram
Current Weather/Forecast (VFR Conditions)
METAR KMCN 251453Z 34007G18KT 10SM CLR 07/02 A3014 RMK AO2 SLP205 T00720022 51023
TAF KMCN 251123Z 2512/2612 30007KT P6SM SKC FM252300 29005KT P6SM SCT200

All Charts
General
Chart Name Download
AIRPORT DIAGRAM
TAKEOFF MINIMUMS
ALTERNATE MINIMUMS

Approaches
Chart Name Download
ILS OR LOC RWY 05
ILS RWY 05 (SA CAT I - II)
RNAV (GPS) RWY 05
RNAV (GPS) RWY 14
RNAV (GPS) RWY 23
RNAV (GPS) RWY 32
VOR RWY 14
VOR RWY 23


Inbound Traffic (Arrivals)

No inbound traffic.


Outbound Traffic (Departures)

No outbound traffic.